Time,TemperatureF,DewpointF,PressureIn,WindDirection,WindDirectionDegrees,WindSpeedMPH,WindSpeedGustMPH,Humidity,HourlyPrecipIn,Conditions,Clouds,dailyrainin,SoftwareType,DateUTC
2013-02-24 12:26:00,11.6,7.0,29.64,ESE,115,0.0,-999.0,81,-99.99,,,0.00,weatherlink.com 1.10,2013-02-24 19:26:00,
2013-02-24 12:41:00,11.9,8.0,29.66,SE,130,2.0,-999.0,83,-99.99,,,0.00,weatherlink.com 1.10,2013-02-24 19:41:00,
2013-02-24 12:56:00,12.0,7.0,29.68,SE,130,5.0,-999.0,80,-99.99,,,0.00,weatherlink.com 1.10,2013-02-24 19:56:00,
2013-02-24 13:11:00,12.4,7.0,29.71,East,94,3.0,-999.0,79,-99.99,,,0.00,weatherlink.com 1.10,2013-02-24 20:11:00,
2013-02-24 13:26:00,12.5,8.0,29.73,ESE,122,3.0,-999.0,81,-99.99,,,0.00,weatherlink.com 1.10,2013-02-24 20:26:00,
2013-02-24 13:41:00,12.2,7.0,29.74,SE,133,3.0,-999.0,79,-99.99,,,0.00,weatherlink.com 1.10,2013-02-24 20:41:00,
2013-02-24 13:56:00,12.6,7.0,29.75,East,84,4.0,-999.0,79,-99.99,,,0.00,weatherlink.com 1.10,2013-02-24 20:56:00,
2013-02-24 14:11:00,12.7,7.0,29.77,ESE,114,5.0,-999.0,78,-99.99,,,0.00,weatherlink.com 1.10,2013-02-24 21:11:00,
2013-02-24 14:26:00,12.2,7.0,29.80,East,100,1.0,-999.0,79,-99.99,,,0.00,weatherlink.com 1.10,2013-02-24 21:26:00,
2013-02-24 14:41:00,13.4,8.0,29.81,NE,44,0.0,-999.0,78,-99.99,,,0.00,weatherlink.com 1.10,2013-02-24 21:41:00,
2013-02-24 14:56:00,13.7,8.0,29.82,ENE,61,7.0,-999.0,77,-99.99,,,0.00,weatherlink.com 1.10,2013-02-24 21:56:00,
2013-02-24 15:11:00,14.0,7.0,29.83,NE,38,3.0,-999.0,74,-99.99,,,0.00,weatherlink.com 1.10,2013-02-24 22:11:00,
2013-02-24 15:26:00,13.8,6.0,29.84,NE,51,1.0,-999.0,72,-99.99,,,0.00,weatherlink.com 1.10,2013-02-24 22:26:00,
2013-02-24 15:41:00,13.3,6.0,29.85,NE,34,0.0,-999.0,73,-99.99,,,0.00,weatherlink.com 1.10,2013-02-24 22:41:00,
2013-02-24 15:56:00,13.0,7.0,29.87,ESE,104,2.0,-999.0,75,-99.99,,,0.00,weatherlink.com 1.10,2013-02-24 22:56:00,
2013-02-24 16:11:00,11.3,5.0,29.89,ESE,123,0.0,-999.0,76,-99.99,,,0.00,weatherlink.com 1.10,2013-02-24 23:11:00,
2013-02-24 16:25:00,10.5,5.0,29.91,SE,126,1.0,-999.0,77,-99.99,,,0.00,weatherlink.com 1.10,2013-02-24 23:25:00,
2013-02-24 16:41:00,9.9,4.0,29.93,SE,128,0.0,-999.0,78,-99.99,,,0.00,weatherlink.com 1.10,2013-02-24 23:41:00,
2013-02-24 16:56:00,9.6,4.0,29.94,SE,124,0.0,-999.0,78,-99.99,,,0.00,weatherlink.com 1.10,2013-02-24 23:56:00,
2013-02-24 17:11:00,9.2,4.0,29.95,SE,124,0.0,-999.0,79,-99.99,,,0.00,weatherlink.com 1.10,2013-02-25 00:11:00,
2013-02-24 17:26:00,8.7,4.0,29.97,SE,124,0.0,-999.0,80,-99.99,,,0.00,weatherlink.com 1.10,2013-02-25 00:26:00,
2013-02-24 17:41:00,8.4,3.0,29.97,ESE,123,0.0,-999.0,80,-99.99,,,0.00,weatherlink.com 1.10,2013-02-25 00:41:00,
2013-02-24 17:56:00,8.1,3.0,29.99,ESE,123,0.0,-999.0,79,-99.99,,,0.00,weatherlink.com 1.10,2013-02-25 00:56:00,
2013-02-24 18:11:00,7.3,1.0,29.99,ESE,123,0.0,-999.0,76,-99.99,,,0.00,weatherlink.com 1.10,2013-02-25 01:11:00,
2013-02-24 18:26:00,6.1,0.0,30.00,SE,124,0.0,-999.0,77,-99.99,,,0.00,weatherlink.com 1.10,2013-02-25 01:26:00,
2013-02-24 18:41:00,4.8,-1.0,30.02,SSW,203,0.0,-999.0,77,-99.99,,,0.00,weatherlink.com 1.10,2013-02-25 01:41:00,
2013-02-24 18:56:00,4.0,-1.0,30.02,West,267,0.0,-999.0,78,-99.99,,,0.00,weatherlink.com 1.10,2013-02-25 01:56:00,
2013-02-24 19:11:00,3.9,-1.0,30.04,NW,324,0.0,-999.0,79,-99.99,,,0.00,weatherlink.com 1.10,2013-02-25 02:11:00,
2013-02-24 19:26:00,3.8,-2.0,30.04,NNW,341,0.0,-999.0,78,-99.99,,,0.00,weatherlink.com 1.10,2013-02-25 02:26:00,
2013-02-24 19:41:00,3.9,-1.0,30.05,NW,312,0.0,-999.0,79,-99.99,,,0.00,weatherlink.com 1.10,2013-02-25 02:41:00,
2013-02-24 19:56:00,4.2,-1.0,30.06,WNW,294,0.0,-999.0,79,-99.99,,,0.00,weatherlink.com 1.10,2013-02-25 02:56:00,
2013-02-24 20:11:00,3.6,-2.0,30.07,WNW,292,2.0,-999.0,76,-99.99,,,0.00,weatherlink.com 1.10,2013-02-25 03:11:00,
2013-02-24 20:26:00,2.3,-4.0,30.08,West,269,1.0,-999.0,75,-99.99,,,0.00,weatherlink.com 1.10,2013-02-25 03:26:00,
2013-02-24 20:41:00,1.6,-4.0,30.09,WNW,288,0.0,-999.0,77,-99.99,,,0.00,weatherlink.com 1.10,2013-02-25 03:41:00,
2013-02-24 20:56:00,1.4,-4.0,30.10,WNW,283,0.0,-999.0,77,-99.99,,,0.00,weatherlink.com 1.10,2013-02-25 03:56:00,
2013-02-24 21:11:00,1.5,-4.0,30.10,West,275,2.0,-999.0,77,-99.99,,,0.00,weatherlink.com 1.10,2013-02-25 04:11:00,
2013-02-24 21:26:00,1.4,-4.0,30.10,WNW,297,0.0,-999.0,77,-99.99,,,0.00,weatherlink.com 1.10,2013-02-25 04:26:00,
2013-02-24 21:41:00,1.4,-4.0,30.11,West,267,2.0,-999.0,77,-99.99,,,0.00,weatherlink.com 1.10,2013-02-25 04:41:00,
2013-02-24 21:56:00,1.5,-4.0,30.10,WNW,291,3.0,-999.0,79,-99.99,,,0.00,weatherlink.com 1.10,2013-02-25 04:56:00,
2013-02-24 22:11:00,3.0,-2.0,30.11,WNW,302,0.0,-999.0,80,-99.99,,,0.00,weatherlink.com 1.10,2013-02-25 05:11:00,
2013-02-24 22:26:00,3.8,-1.0,30.12,North,5,0.0,-999.0,80,-99.99,,,0.00,weatherlink.com 1.10,2013-02-25 05:26:00,
2013-02-24 22:41:00,4.0,-1.0,30.11,North,9,0.0,-999.0,80,-99.99,,,0.00,weatherlink.com 1.10,2013-02-25 05:41:00,
2013-02-24 22:56:00,3.4,-2.0,30.11,North,5,0.0,-999.0,78,-99.99,,,0.00,weatherlink.com 1.10,2013-02-25 05:56:00,
2013-02-24 23:11:00,2.4,-4.0,30.11,North,9,2.0,-999.0,76,-99.99,,,0.00,weatherlink.com 1.10,2013-02-25 06:11:00,
2013-02-24 23:26:00,2.7,-2.0,30.11,NNW,342,0.0,-999.0,80,-99.99,,,0.00,weatherlink.com 1.10,2013-02-25 06:26:00,
2013-02-24 23:41:00,2.8,-2.0,30.12,NNE,13,2.0,-999.0,80,-99.99,,,0.00,weatherlink.com 1.10,2013-02-25 06:41:00,
2013-02-24 23:56:00,2.8,-2.0,30.13,NNE,32,0.0,-999.0,80,-99.99,,,0.00,weatherlink.com 1.10,2013-02-25 06:56:00,